Puerto Limon, Costa Rica

7:07 PM CST on August 30, 2016 (GMT -0600)
Limon International

Weather History for MRLM - September, 2012

Change the Weather History Date:

Tuesday, September 11, 2012

  Actual Average Record
Temperature  
Mean Temperature 76 °F -  
Max Temperature 81 °F 84 °F 89 °F (2008)
Min Temperature 70 °F 75 °F 70 °F (2012)
Cooling Degree Days 10    
Growing Degree Days 26 (Base 50)    
Moisture  
Dew Point 73 °F    
Average Humidity 88    
Maximum Humidity 100    
Minimum Humidity 75    
Precipitation  
Precipitation 0.35 in 0.23 in - ()
Sea Level Pressure  
Sea Level Pressure 29.91 in    
Wind  
Wind Speed 5 mph ()    
Max Wind Speed 18 mph    
Max Gust Speed -    
Visibility 6.6 miles    
Events Rain , Thunderstorm    
Averages and records for this station are not official NWS values.
T = Trace of Precipitation, MM = Missing Value Source: Averaged Metar Reports

Daily Weather History Graph

Daily Weather History Graph

Search for Another Location

Airport or City:

Trip Planner

Search our weather history database for the weather conditions in past years. The results will help you decide how hot, cold, wet, or windy it might be!

Date:

Astronomy

Sep. 11, 2012 Rise Set
Actual Time 5:22 AM CST 5:34 PM CST
Civil Twilight 5:01 AM CST 5:55 PM CST
Nautical Twilight 4:36 AM CST 6:20 PM CST
Astronomical Twilight 4:12 AM CST 6:44 PM CST
Moon 1:18 AM CST (9/11) 2:08 PM CST (9/11)
Length of Visible Light 12h 54m
Length of Day
12h 12m
Waning Crescent, 21% of the Moon is Illuminated
Sep 11
Waning Crescent
Sep 15
New
Sep 22
First Quarter
Sep 29
Full
Oct 8
Last Quarter

Hourly Weather History & Observations

Time (CST) Temp. Heat Index Dew Point Humidity Pressure Visibility Wind Dir Wind Speed Gust Speed Precip Events Conditions
6:00 AM 71 °F - 70 °F 96% 29.90 in 9 mi WSW 4.6 mph - - Thunderstorm Thunderstorm
6:00 AM 71.6 °F - 69.8 °F 94% 29.88 in 6.2 mi WSW 4.6 mph - N/A   Scattered Clouds
7:00 AM 73.4 °F - 71.6 °F 94% 29.90 in 6.2 mi SW 5.8 mph - N/A   Mostly Cloudy
8:00 AM 80.6 °F 85.4 °F 73.4 °F 79% 29.91 in 6.2 mi SW 4.6 mph - N/A   Scattered Clouds
9:00 AM 79 °F - 73 °F 78% 29.99 in 6 mi East 9.2 mph - - Rain Rain
9:00 AM 78.8 °F - 73.4 °F 83% 29.94 in 6.2 mi East 9.2 mph - N/A Rain , Thunderstorm Rain
9:20 AM 75.2 °F - 73.4 °F 94% 29.98 in 3.7 mi NNE 18.4 mph - N/A Rain , Thunderstorm Heavy Thunderstorms and Rain
10:00 AM 73.4 °F - 71.6 °F 94% 29.96 in 6.2 mi SW 6.9 mph - N/A   Drizzle
11:00 AM 73.4 °F - 71.6 °F 94% 29.96 in 6.2 mi WSW 4.6 mph - N/A   Drizzle
12:00 PM 74 °F - 72 °F 94% 29.94 in 9 mi WNW 3.5 mph - - Rain Drizzle
12:00 PM 73.4 °F - 73.4 °F 100% 29.93 in 6.2 mi WNW 3.5 mph - N/A   Drizzle
1:00 PM 77.0 °F - 73.4 °F 89% 29.89 in 6.2 mi West 4.6 mph - N/A   Mostly Cloudy
2:00 PM 78.8 °F - 73.4 °F 83% 29.86 in 6.2 mi West 4.6 mph - N/A   Scattered Clouds
3:00 PM 80 °F - 73 °F 75% 29.86 in 9 mi West 4.6 mph - -   Haze
3:00 PM 80.6 °F 85.4 °F 73.4 °F 79% 29.84 in 6.2 mi West 4.6 mph - N/A   Scattered Clouds
4:00 PM 80.6 °F 86.2 °F 75.2 °F 84% 29.85 in 6.2 mi WNW 4.6 mph - N/A   Mostly Cloudy
5:00 PM 78.8 °F - 73.4 °F 83% 29.86 in 6.2 mi West 4.6 mph - N/A   Scattered Clouds
6:00 PM 76 °F - 74 °F 91% 29.89 in 9 mi WSW 4.6 mph - -   Haze
6:00 PM 77.0 °F - 73.4 °F 89% 29.88 in 6.2 mi WSW 4.6 mph - N/A   Scattered Clouds